weather.gov     
National Weather Service

Regional Weather Roundup
NWS Homepage
This page is being discontinued on March 12, 2014.
The same data is available at this site. Please update your bookmarks.
Thank you, and we apologize for the inconvenience.
Please send an email to SR-SRH.Webmaster@noaa.gov with any concerns.


Current Version
Previous Version:    01  02  03  04  05  06  07  08  09  10  11  12  13  14  15  16  17  18  19  20  21  22  23  24  25  26  27  28  29  30  
   31  32  33  34  35  36  37  38  39  40  41  42  43  44  45  46  47  48  49  50  51  52  53  54  55  56  57  58  
[Printable]
889
ASUS43 KFGF 200131
RWRFGF
PRAIRIE TO PINES  WEATHER ROUNDUP
NATIONAL WEATHER SERVICE EASTERN NORTH DAKOTA/GRAND FORKS ND
800 PM CDT FRI SEP 19 2014

 **SATELLITE DATA USED TO AUGMENT SKY COVER AT AUTOMATED STATIONS**
 *****  WEATHER ACROSS EASTERN NORTH DAKOTA  *****

CITY           SKY/WX    TMP DP  RH WIND       PRES   REMARKS
GRAND FORKS    CLEAR     72  55  55 W9        29.52R
GRAND FRKS AFB CLEAR     70  55  60 N14G23    29.56R
GRAND FRKS NWS   N/A     68 N/A N/A N16         N/A
DEVILS LAKE    MOCLDY    70  55  60 NW15      29.62R
FARGO          MOCLDY    73  61  65 SW9       29.57R
WAHPETON ARPT  CLEAR     70  61  73 SW8       29.62S
$$

 ***** WEATHER ACROSS CENTRAL AND WESTERN NORTH DAKOTA  *****

CITY           SKY/WX    TMP DP  RH WIND       PRES   REMARKS
BISMARCK       CLOUDY    74  53  48 NW10      29.72R
MINOT          CLEAR     65  55  70 W14       29.71R
JAMESTOWN      MOCLDY    73  52  47 W12       29.64R
MINOT AFB      CLEAR     79  52  38 NW24G31   29.57R
GARRISON         N/A     66  56  70 NW7       29.73R
WILLISTON      CLEAR     68  50  52 NW8       29.77R
DICKINSON      CLOUDY    69  51  52 NW6       29.79R
HETTINGER      CLOUDY    68  48  48 W9        29.83R
$$

 *****  OTHER AIRPORT OBSERVATIONS IN OUR AREA  *****

CITY           SKY/WX    TMP DP  RH WIND       PRES   REMARKS
WALHALLA         N/A     63  57  82 NW12G17   29.63R
GRAFTON AIRPOR FAIR      64  59  82 N21G29    29.57R
VALLEY CITY AR FAIR      72  55  56 W13       29.62R
CANDO          MOCLDY    64  57  77 NW10      29.67R
CAVALIER APRT  MOCLDY    63  55  77 N17G24    29.60R
GWINNER        CLEAR     66  57  72 W8        29.66R
ROLLA          CLOUDY    63  55  77 NW14      29.69R
 ***** THE ABOVE OBSERVATIONS ARE NON NWS ARE NOT QUALITY
       CONTROLLED AND MAY MIS-REPORT RAIN FOR SNOW...
$$

  *****  WEATHER ACROSS NORTHERN MINNESOTA  *****

CITY           SKY/WX    TMP DP  RH WIND       PRES   REMARKS
FLAG ISLAND    TSTM      61  59  94 CALM      29.52S
WARROAD        TSTM      64  61  88 E10       29.49F
ROSEAU         TSTM      63  57  82 NW20G36   29.58R
HALLOCK        MOCLDY    63  61  94 NW10      29.57R
THF RVR FALLS  CLEAR     70  63  78 S10       29.53R
BAUDETTE       MOCLDY    64  62  93 CALM      29.54S
WASKISH        CLEAR     64  63  94 CALM      29.57R
CROOKSTON      PTCLDY    68  63  83 SW3       29.54R
STEPHEN NDAWN    N/A     66  63  88 N21         N/A
GREENBUSH NDAW   N/A     64  61  88 N3          N/A
$$
  *****  WEATHER ACROSS CENTRAL AND WEST MINNESOTA  *****

CITY           SKY/WX    TMP DP  RH WIND       PRES   REMARKS
FOSSTON        PTCLDY    64  63  94 S9        29.57S
BEMIDJI        PTCLDY    62  60  95 S5        29.59S
PARK RAPIDS    PTCLDY    64  62  93 S8        29.62S
ELBOW LAKE     FAIR      64  63  97 S7        29.65R
WADENA         CLEAR     63  61  94 CALM      29.64S FOG
DETROIT LAKES  PTCLDY    66  64  94 SW7       29.63R
MOORHEAD       MOCLDY    73  68  83 SW9       29.59R
FERGUS FALLS   CLEAR     66  64  94 S6        29.63S
MORRIS MN      CLEAR     66  64  94 S6        29.66R
STAPLES        CLEAR     63  61  94 S5        29.64S FOG
$$
  *****  WEATHER ELSEWHERE ACROSS MINNESOTA  *****

CITY           SKY/WX    TMP DP  RH WIND       PRES   REMARKS
DULUTH         CLOUDY    64  60  87 W13       29.64S FOG
INTRNTL FALLS  MOCLDY    63  61  93 VRB5      29.57R
ELY            CLOUDY    59  57  94 SW5       29.63S FOG
CLOQUET        CLOUDY    63  61  94 SW5       29.65S FOG
WHEATON        CLEAR     66  63  88 SW7       29.66R
BRAINERD       CLOUDY    62  62 100 SW6       29.65R FOG
HIBBING        CLOUDY    62  60  93 SW3       29.64S FOG
ALEXANDRIA     PTCLDY    66  64  93 SW8       29.67S
SAINT CLOUD    MOCLDY    64  62  93 S3        29.66R FOG
MINNEAPOLIS    CLOUDY    73  63  70 VRB7      29.67S
$$

  *****  WEATHER ACROSS SOUTH DAKOTA  *****

CITY           SKY/WX    TMP DP  RH WIND       PRES   REMARKS
SIOUX FALLS    PTCLDY    76  65  68 W5        29.71R
BROOKINGS      NOT AVBL
WATERTOWN      CLEAR     68  62  81 SW6       29.71R
HURON          MOCLDY    72  59  63 NW5       29.70R
SISSETON         N/A     72  66  81 W9        29.64R
ABERDEEN       CLEAR     69  58  67 SW7       29.68R
MITCHELL       LGT RAIN  78  66  66 SW5       29.71R
PIERRE         CLEAR     73  55  53 NW10      29.75R
MOBRIDGE       PTCLDY    71  54  54 NW9       29.73R
RAPID CITY     PTCLDY    73  49  42 N13       29.88R
$$

  *****  SOME WEATHER IN NEARBY STATES *****

CITY           SKY/WX    TMP DP  RH WIND       PRES   REMARKS
GLASGOW MT     PTCLDY    69  53  56 NW5       29.80R
GREAT FALLS MT CLEAR     67  41  38 W15       29.96R
CHEYENNE WY    CLOUDY    77  39  25 NW5       30.05R
SCOTTSBLUFF NE CLEAR     78  49  35 E5        29.88R
OMAHA NE       PTCLDY    80  68  66 S17       29.79S
DES MOINES IA  PTCLDY    73  65  75 S14       29.85S
DAVENPORT IA   PTCLDY    69  53  56 S13       29.93F
CHICAGO IL     PTCLDY    68  46  45 S9        29.99R
EAU CLAIRE WI  MOCLDY    71  59  65 S14       29.72S
LA CROSSE WI   CLEAR     70  57  63 S9        29.80R
$$

  *****  SOME NATIONAL WEATHER *****

CITY           SKY/WX    TMP DP  RH WIND       PRES   REMARKS
LA GUARDIA NY  PTCLDY    61  46  57 SE12      30.38R
RALEIGH NC     PTCLDY    68  58  70 E6        30.22R
ATLANTA GA     PTCLDY    75  64  68 E12       30.10R
NEW ORLEANS LA PTCLDY    80  67  64 E7        29.94R
OKLAHOMA CITY  PTCLDY    77  65  66 SE7       29.95R
ALBUQUERQUE NM PTCLDY    79  55  43 SW12      30.03R
SALT LAKE CITY PTCLDY    79  47  32 NW9       30.02R
LOS ANGELES CA MOSUNNY   71  61  70 W13       29.85R
BOISE ID       CLEAR     78  46  32 W9        30.01S
SEATTLE WA     MOSUNNY   72  57  59 S6        30.08S
$$

*** WEATHER ACROSS MANITOBA...SASKATCHEWAN AND ONTARIO ***
                ***ONTARIO***

CITY           SKY/WX    TMP DP  RH WIND       PRES   REMARKS
GERALDTON      LGT RAIN  52  52 100 SW12G20   29.55F FOG
THUNDER BAY    CLOUDY    61  59  94 W6        29.59S FOG
SIOUX LOOKOUT  LGT RAIN  59  59 100 SW3       29.52S FOG
TORONTO        MOCLDY    52  46  82 E7        30.14F
BIG TROUT LK   CLOUDY    48  46  93 N6        29.52R
PICKLE LAKE    DRIZZLE   59  57  94 N7        29.49R FOG
DRYDEN         CLOUDY    61  61 100 SW8       29.54R FOG
KENORA         FOG       61  61 100 SW6       29.55R VSB 1/4
$$
                *** MANITOBA***

CITY           SKY/WX    TMP DP  RH WIND       PRES   REMARKS
BRANDON        CLOUDY    61  54  77 NW6       29.67R
DAUPHIN        CLOUDY    55  54  94 NE7       29.67R
ISLAND LAKE    CLOUDY    52  48  87 N6        29.59R
PILOT MOUND    NOT AVBL
THE PAS        CLOUDY    54  46  76 CALM      29.62S
THOMPSON       MOCLDY    37  37 100 N3        29.63R
WINNIPEG       CLOUDY    61  57  88 N9        29.61R
LYNN LAKE      PTCLDY    45  37  76 NE3       29.62R
CHURCHILL      CLOUDY    41  36  81 N21G29    29.57R
GILLAM         MOCLDY    46  37  71 NW10      29.59R
$$
                ***SASKATCHEWAN***

CITY           SKY/WX    TMP DP  RH WIND       PRES   REMARKS
ESTEVAN        PTCLDY    63  52  67 NW7       29.76
KINDERSLEY     PTCLDY    68  46  45 W5        29.75S
LLOYDMINSTER   MOCLDY    59  46  63 W8        29.69S THUNDER
PRINCE ALBERT  PTCLDY    63  52  67 W6        29.64S
REGINA         PTCLDY    61  52  72 W7        29.74R
YORKTON        CLEAR     57  52  82 W6        29.69R
N. BATTLEFORD  MOCLDY    66  46  48 W6        29.71R
LA RONGE       MOCLDY    57  54  88 E3        29.56  THUNDER
SASKATOON      MOCLDY    61  48  63 W6        29.70R
SWIFT CURRENT  CLEAR     64  46  52 W6        29.78R
$$
NOTE: THESE ARE AUTOMATED STATIONS WITH LIMITED QUALITY CONTROL
      "FAIR" INDICATES FEW OR NO CLOUDS BELOW 12,000 FEET WITH NO
      SIGNIFICANT WEATHER AND/OR OBSTRUCTIONS TO VISIBILITY.
      SKY/WX - SKY CONDITION AND SIGNIFICANT WEATHER.
      TMP - AIR TEMPERATURE.    DP   - DEWPOINT TEMPERATURE.
      RH  - RELATIVE HUMIDITY.  PRES - PRESSURE.
      HX  - HEAT INDEX.         WCI  - WIND CHILL INDEX.
$




U.S. Dept. of Commerce
NOAA National Weather Service
1325 East West Highway
Silver Spring, MD 20910
E-mail: w-nws.webmaster@noaa.gov
Page last modified: May 16, 2007
NATIONAL WEATHER SERVICE: for Safety, for Work, for Fun - FOR LIFE